[[{"header":{"parameterUnit":"m.s-1","parameterCategory":1,"la1":30.2991,"la2":30.254,"lo1":-89.0895,"lo2":-89.0444,"dy":0.0017,"dx":0.0017,"nx":28,"ny":28,"refTime":"2025-06-19T03:00:00:Z","depth":0,"parameterNumber":2,"parameterNumberName":"U-component_of_WINDS"},"data":[0,0,0,0,0,0,0,0,0,0,0,0,0,0,0,0,0,0,0,0,0,0,0,0,0,0,0,0,0,0,0,0,0,0,0,0,0,0,0,0,0,0,0,0,0,0,0,0,0,0,0,0,0,0,0,0,0,0,2.7646,2.7647,0,2.7715,2.7716,2.7717,2.77,2.7699,2.7698,2.7696,2.7769,2.7772,2.7775,0,0,0,0,0,0,0,0,0,0,0,0,0,2.7504,2.7507,2.7646,2.7647,2.7648,2.7715,2.7716,2.7717,2.7701,2.7699,2.7697,2.7696,2.7768,2.7772,2.7776,0,0,0,0,0,0,0,0,0,0,0,0,0,2.7569,2.7508,2.7646,2.7648,2.7649,2.7715,2.7716,2.7717,2.7701,2.7699,2.7697,2.7695,2.7767,2.7771,2.7776,2.7845,0,0,2.7791,2.7793,0,0,0,0,0,0,0,0,2.7565,2.7574,2.7647,2.7648,2.7649,2.7697,2.7692,2.776,2.7701,2.7681,2.7696,2.7694,2.7747,2.7753,2.777,2.7849,2.7852,2.7791,2.7794,2.7796,2.7797,0,0,0,0,0,0,0,2.7561,2.7571,2.7673,2.7648,2.7649,2.7646,2.7653,2.7705,2.7724,2.7683,2.7682,2.769,2.7747,2.7766,2.7772,2.7853,2.7791,2.7795,2.7798,2.78,2.7994,2.7996,0,0,0,0,0,0,2.7555,2.7567,2.7671,2.7675,2.7601,2.7651,2.7658,2.7684,2.7724,2.7728,2.7692,2.7689,2.7759,2.7767,2.7775,2.786,2.7796,2.78,2.7803,2.7991,2.7994,2.7997,0,0,0,0,0,0,2.7552,2.7564,2.7668,2.7621,2.7634,2.7655,2.7684,2.7686,2.7705,2.773,2.7734,2.7707,2.7758,2.7768,2.7828,2.7862,2.7803,2.7807,2.7989,2.7992,2.7995,2.803,0,0,0,0,0,0,2.7548,2.7563,2.7589,2.7622,2.7637,2.772,2.7686,2.7689,2.7713,2.771,2.7746,2.775,2.7757,2.7821,2.7833,2.7867,2.7811,2.7986,2.799,2.7994,2.8026,2.8034,2.8041,0,0,0,0,0,2.7543,2.7596,2.759,2.7603,2.7669,2.7722,2.7731,2.7737,2.7715,2.7742,2.7759,2.7749,2.7856,2.7827,2.7841,2.7877,2.7984,2.7989,2.7994,2.8022,2.8032,2.8041,0,0,0,0,0,0,2.7566,2.76,2.7594,2.7659,2.7688,2.7719,2.7752,2.7747,2.7782,2.7778,2.7785,2.7793,2.7855,2.7872,2.7839,2.7947,2.7917,2.7925,2.7934,2.7944,2.7951,2.7946,2.7815,0,0,0,0,0,2.7579,2.7618,2.7646,2.77,2.7715,2.7731,2.7755,2.7757,2.7787,2.7799,2.782,2.7851,2.7892,2.7919,2.7957,2.8028,2.8037,2.806,2.8067,2.8073,2.8081,2.8121,2.8132,2.8014,2.8014,2.8014,0,0,2.7606,2.7629,2.7653,2.7706,2.7728,2.777,2.7742,2.7787,2.7818,2.7806,2.7865,2.7882,2.7916,2.7983,2.8013,2.7999,2.8115,2.808,2.8085,2.8089,2.8128,2.8139,2.8149,2.8017,2.8017,2.8016,0,0,2.7676,2.7696,2.7745,2.7769,2.7803,2.7814,2.7826,2.7858,2.7869,2.7928,2.792,2.7959,2.8028,2.8054,2.8076,2.8158,2.8151,2.817,2.8211,2.825,2.826,2.8268,2.8299,2.831,2.8177,2.8177,2.8178,0,2.7705,2.7766,2.7771,2.7817,2.7842,2.7833,2.7883,2.7906,2.7952,2.7969,2.7952,2.8041,2.8063,2.8136,2.8157,2.8174,2.8189,2.8167,2.8258,2.8266,2.8274,2.8304,2.8315,2.818,2.8179,2.8179,2.8179,0,2.7801,2.7845,2.788,2.7924,2.7952,2.8,2.8014,2.8042,2.8042,2.8056,2.8117,2.8144,2.8189,2.8206,2.8207,2.828,2.8271,2.8256,2.8226,2.8288,2.8316,2.8327,2.8183,2.8182,2.8181,2.8181,0,0,2.7888,2.7935,2.7948,2.7969,2.8007,2.8041,2.809,2.8133,2.8159,2.8191,2.8233,2.8293,2.828,2.8305,2.8309,2.8343,2.8409,2.8325,2.8326,2.8341,2.8494,2.8506,2.8519,2.8404,2.8407,2.8408,2.8492,0,2.7962,2.8047,2.8054,2.8131,2.8172,2.8165,2.8208,2.8237,2.8251,2.8289,2.8304,2.8347,2.8326,2.8342,2.8375,2.8394,2.844,2.8388,2.8445,2.8447,2.8438,2.8533,2.8546,2.8623,2.8503,2.8505,2.8506,0,2.8061,2.8096,2.8177,2.8212,2.8229,2.8267,2.8309,2.8345,2.8378,2.8386,2.8415,2.8415,2.8466,2.8434,2.8507,2.8471,2.8495,2.8508,2.8511,2.8518,2.8481,2.8544,2.8648,2.866,2.8523,2.8522,2.852,0,2.8118,2.8186,2.8244,2.8261,2.8302,2.833,2.8348,2.8379,2.8406,2.8443,2.8461,2.8503,2.8527,2.856,2.8572,2.8547,2.8645,2.8613,2.8655,2.8655,2.8676,2.8675,2.8787,2.869,2.8689,2.8689,2.8689,0,2.8201,2.8252,2.827,2.8306,2.8363,2.837,2.8427,2.8444,2.8472,2.8513,2.8509,2.8547,2.8559,2.86,2.861,2.867,2.868,2.8689,2.8691,2.869,2.8689,2.8707,2.8702,2.8692,2.8692,2.8691,2.869,0,2.8275,2.8289,2.8352,2.8386,2.8395,2.8436,2.8466,2.8501,2.8515,2.8566,2.8578,2.86,2.8648,2.8663,2.872,2.8727,2.8798,2.8794,2.8786,2.8787,2.8828,2.8825,2.8956,2.8975,2.8864,2.8865,2.8866,0,2.8328,2.8367,2.8405,2.8431,2.8451,2.8493,2.8521,2.853,2.8559,2.8601,2.8632,2.8679,2.8717,2.8795,2.8816,2.8861,2.886,2.8903,2.8867,2.8865,2.8863,2.8861,2.8866,2.891,2.8911,2.8912,2.8913,0,2.8421,2.8426,2.8465,2.8508,2.854,2.8574,2.8607,2.8629,2.8644,2.8676,2.8725,2.8755,2.8814,2.8862,2.8908,2.8928,2.8924,2.8924,2.8936,2.8936,2.8931,2.8936,2.8806,2.8921,2.892,2.892,2.8919,2.8919,2.8487,2.8522,2.8555,2.8599,2.8625,2.8656,2.8691,2.8709,2.875,2.8799,2.8802,2.8855,2.889,2.8951,2.8974,2.9017,2.9004,2.9022,2.9026,2.9031,2.9035,2.8923,2.9025,2.9025,2.9024,2.9024,2.9024,0,2.8582,2.8603,2.8643,2.8689,2.8725,2.8716,2.8753,2.8783,2.883,2.8862,2.89,2.8957,2.9004,2.903,2.9077,2.9106,2.9106,2.9119,2.9117,2.9123,2.9042,2.9028,2.9118,2.9118,2.9118,2.9118,2.9118,2.9118,2.8635,2.8694,2.8704,2.8776,2.8797,2.8849,2.8871,2.89,2.8926,2.899,2.9028,2.9045,2.9075,2.9125,2.9168,2.9174,2.9193,2.9207,2.9213,2.9137,2.9128,2.9119,2.9105,2.921,2.9211,2.9289,2.929,2.9291]},{"header":{"parameterUnit":"m.s-1","parameterCategory":1,"la1":30.2991,"la2":30.254,"lo1":-89.0895,"lo2":-89.0444,"dy":0.0017,"dx":0.0017,"nx":28,"ny":28,"refTime":"2025-06-19T03:00:00:Z","depth":0,"parameterNumber":3,"parameterNumberName":"V-component_of_WINDS"},"data":[0,0,0,0,0,0,0,0,0,0,0,0,0,0,0,0,0,0,0,0,0,0,0,0,0,0,0,0,0,0,0,0,0,0,0,0,0,0,0,0,0,0,0,0,0,0,0,0,0,0,0,0,0,0,0,0,0,0,-0.8749,-0.875,0,-0.8805,-0.8806,-0.8806,-0.8828,-0.8828,-0.8828,-0.8827,-0.8885,-0.8886,-0.8888,0,0,0,0,0,0,0,0,0,0,0,0,0,-0.8663,-0.8664,-0.8749,-0.875,-0.875,-0.8805,-0.8806,-0.8806,-0.8828,-0.8828,-0.8827,-0.8827,-0.8884,-0.8886,-0.8888,0,0,0,0,0,0,0,0,0,0,0,0,0,-0.8708,-0.8665,-0.8749,-0.8768,-0.877,-0.8805,-0.8806,-0.8807,-0.8828,-0.8828,-0.8827,-0.8827,-0.8883,-0.8886,-0.8888,-0.8908,0,0,-0.8896,-0.8897,0,0,0,0,0,0,0,0,-0.8705,-0.8711,-0.8764,-0.8767,-0.8769,-0.8809,-0.8796,-0.8841,-0.8828,-0.8806,-0.8827,-0.8827,-0.886,-0.8864,-0.8875,-0.8911,-0.8914,-0.8896,-0.8898,-0.8899,-0.8899,0,0,0,0,0,0,0,-0.8702,-0.8708,-0.8771,-0.8765,-0.8768,-0.8774,-0.878,-0.8805,-0.8833,-0.8808,-0.881,-0.8816,-0.8861,-0.8873,-0.8877,-0.8914,-0.8896,-0.8898,-0.89,-0.8901,-0.8972,-0.8973,0,0,0,0,0,0,-0.8696,-0.8706,-0.8769,-0.8773,-0.8736,-0.8776,-0.8783,-0.8797,-0.8833,-0.8839,-0.8816,-0.8817,-0.8868,-0.8874,-0.8879,-0.8906,-0.8899,-0.8901,-0.8902,-0.8972,-0.8973,-0.8973,0,0,0,0,0,0,-0.8694,-0.8701,-0.8767,-0.874,-0.8749,-0.8777,-0.8793,-0.8798,-0.881,-0.8839,-0.8845,-0.8823,-0.8868,-0.8875,-0.8901,-0.8909,-0.8902,-0.8904,-0.8972,-0.8972,-0.8973,-0.8961,0,0,0,0,0,0,-0.8691,-0.87,-0.8707,-0.874,-0.875,-0.8788,-0.8793,-0.8799,-0.8814,-0.8815,-0.8847,-0.8852,-0.8869,-0.8898,-0.8904,-0.8912,-0.8906,-0.8971,-0.8972,-0.8973,-0.8961,-0.8961,-0.8961,0,0,0,0,0,-0.8688,-0.8701,-0.8708,-0.8715,-0.876,-0.8789,-0.8795,-0.8814,-0.8814,-0.8822,-0.8842,-0.8851,-0.8907,-0.89,-0.8907,-0.8916,-0.8971,-0.8972,-0.8972,-0.8961,-0.8961,-0.8961,0,0,0,0,0,0,-0.8668,-0.8706,-0.8713,-0.8738,-0.876,-0.8792,-0.8803,-0.8813,-0.8836,-0.8836,-0.8859,-0.8866,-0.8891,-0.8906,-0.8898,-0.8939,-0.894,-0.8942,-0.8928,-0.8929,-0.8929,-0.8925,-0.8908,0,0,0,0,0,-0.8667,-0.8687,-0.8719,-0.8737,-0.8748,-0.8774,-0.8787,-0.88,-0.8824,-0.8833,-0.8855,-0.8878,-0.8901,-0.8916,-0.8938,-0.8963,-0.8971,-0.8973,-0.8973,-0.8973,-0.8975,-0.8992,-0.8994,-0.8976,-0.8976,-0.8976,0,0,-0.8664,-0.8687,-0.8698,-0.8734,-0.8753,-0.8774,-0.8781,-0.8803,-0.8819,-0.8837,-0.8863,-0.888,-0.8907,-0.8934,-0.8946,-0.8947,-0.8982,-0.8975,-0.8974,-0.8976,-0.8993,-0.8995,-0.8996,-0.8977,-0.8976,-0.8976,0,0,-0.867,-0.8689,-0.8707,-0.8727,-0.8755,-0.8773,-0.8777,-0.8809,-0.8821,-0.8848,-0.8862,-0.8882,-0.892,-0.894,-0.8955,-0.8971,-0.8981,-0.8978,-0.8979,-0.8995,-0.8997,-0.8998,-0.9005,-0.9008,-0.898,-0.898,-0.898,0,-0.8663,-0.8695,-0.8716,-0.8737,-0.8753,-0.8771,-0.8791,-0.8808,-0.8843,-0.8854,-0.8854,-0.8905,-0.8924,-0.8957,-0.8961,-0.8972,-0.8979,-0.8975,-0.8995,-0.8996,-0.8998,-0.9005,-0.9008,-0.8979,-0.8979,-0.8979,-0.898,0,-0.8686,-0.8708,-0.8719,-0.8753,-0.8771,-0.8791,-0.8816,-0.8831,-0.8843,-0.886,-0.8889,-0.8914,-0.8943,-0.8951,-0.8962,-0.8986,-0.8986,-0.899,-0.8991,-0.8999,-0.9006,-0.9009,-0.8979,-0.8979,-0.8979,-0.8979,0,0,-0.868,-0.8726,-0.873,-0.8747,-0.8781,-0.8799,-0.8821,-0.885,-0.8863,-0.8887,-0.8907,-0.894,-0.8946,-0.8963,-0.8977,-0.8991,-0.9004,-0.8994,-0.8995,-0.8996,-0.9034,-0.903,-0.9033,-0.9011,-0.9012,-0.9012,-0.9032,0,-0.8691,-0.8731,-0.8751,-0.8783,-0.8805,-0.8823,-0.8843,-0.8866,-0.8884,-0.8905,-0.8925,-0.8949,-0.8953,-0.8964,-0.8978,-0.8999,-0.9012,-0.8998,-0.9031,-0.9032,-0.9024,-0.9037,-0.9033,-0.905,-0.9034,-0.9035,-0.9035,0,-0.8709,-0.8734,-0.8768,-0.8802,-0.8812,-0.8829,-0.8858,-0.8878,-0.8906,-0.8918,-0.8938,-0.8953,-0.8978,-0.8977,-0.9013,-0.9003,-0.9018,-0.903,-0.9032,-0.9036,-0.9034,-0.9042,-0.9056,-0.9059,-0.904,-0.9039,-0.9039,0,-0.8703,-0.8745,-0.8771,-0.8784,-0.8824,-0.8836,-0.8853,-0.8881,-0.8898,-0.8924,-0.8935,-0.8963,-0.8979,-0.9001,-0.9023,-0.902,-0.9058,-0.9058,-0.9069,-0.9069,-0.9076,-0.9076,-0.9094,-0.9084,-0.9084,-0.9084,-0.9084,0,-0.8714,-0.8734,-0.8769,-0.8785,-0.8809,-0.8833,-0.8857,-0.8875,-0.89,-0.8921,-0.8939,-0.8958,-0.8986,-0.9009,-0.9027,-0.9055,-0.9061,-0.9073,-0.9077,-0.9072,-0.907,-0.9082,-0.9081,-0.9085,-0.9085,-0.9085,-0.9084,0,-0.8711,-0.8735,-0.8765,-0.8801,-0.8811,-0.8827,-0.8858,-0.8875,-0.8894,-0.8921,-0.8928,-0.8959,-0.8987,-0.9012,-0.9049,-0.9061,-0.9091,-0.9095,-0.9081,-0.9084,-0.9094,-0.9093,-0.9121,-0.9126,-0.9112,-0.9112,-0.9112,0,-0.8716,-0.8732,-0.8771,-0.8786,-0.8804,-0.8828,-0.8846,-0.8871,-0.8889,-0.8923,-0.8936,-0.8967,-0.8992,-0.9037,-0.9063,-0.9092,-0.9098,-0.9106,-0.9103,-0.9097,-0.91,-0.9099,-0.9102,-0.9106,-0.9106,-0.9106,-0.9106,0,-0.8724,-0.8736,-0.876,-0.879,-0.8811,-0.8836,-0.8861,-0.8873,-0.8903,-0.8922,-0.8952,-0.8972,-0.9011,-0.9041,-0.9074,-0.9092,-0.9105,-0.9107,-0.9112,-0.9106,-0.9098,-0.9104,-0.9083,-0.9106,-0.9106,-0.9106,-0.9106,-0.9106,-0.8726,-0.8742,-0.8773,-0.88,-0.8822,-0.8846,-0.8865,-0.8887,-0.8912,-0.8946,-0.896,-0.8991,-0.9021,-0.9066,-0.9085,-0.911,-0.9112,-0.9117,-0.9119,-0.912,-0.912,-0.9094,-0.9116,-0.9116,-0.9116,-0.9116,-0.9116,0,-0.8736,-0.8757,-0.8782,-0.8818,-0.884,-0.885,-0.8879,-0.8898,-0.8925,-0.8952,-0.8977,-0.9012,-0.9042,-0.9071,-0.9103,-0.9118,-0.9125,-0.9126,-0.9125,-0.913,-0.9116,-0.911,-0.912,-0.912,-0.912,-0.912,-0.912,-0.912,-0.8743,-0.8772,-0.8788,-0.8829,-0.885,-0.888,-0.8896,-0.8919,-0.8941,-0.898,-0.9005,-0.9024,-0.9052,-0.9087,-0.9116,-0.9123,-0.9135,-0.9134,-0.9144,-0.9131,-0.913,-0.9129,-0.9124,-0.9136,-0.9136,-0.9155,-0.9156,-0.9156]}]]